Location: Altoona
(40.5167°N, 78.4000°W)
Time: 09:05:39
(UTC-05:00)

Helios 1B rocket - Pass Details

Date: 21 August 2017
Orbit: 576 x 586 km, 98.2° (Epoch: 20 November)

Event Time Altitude Azimuth Distance (km) Brightness Sun altitude
Rises 20:48:34 0° 28° (NNE) 2,800 5.9 -9.1°
Reaches altitude 10° 20:51:09 10° 44° (NE) 1,897 4.9 -9.6°
Maximum altitude 20:54:19 21° 95° (E) 1,311 3.7 -10.1°
Enters shadow 20:57:06 12° 142° (SE) 1,776 4.4 -10.6°
